Temp
-16 -16 -16 -16 -16 -16 -16 -16 -16 -16 -16 -16 -16 -16 -16 -16 -17 -17 -17 -17 -17 -18 -18 -18 -19 -19 -19 -20 -20 -20 -20 -20 -20 -20 -20 -20 -19 -19 -19 -19 -19 -18 -18 -18 -18 -18 -18 -18 -18 -17 -17 -17 -16 -15 -16 -16 -16 -15 -15 -15 -15 -15 -15 -15 -14 -15 -15 -14 -14 -14 -14 -14 -14 -14
-16 -16 -16 -16 -16 -16 -16 -16 -16 -16 -16 -16 -16 -16 -16 -16 -16 -17 -17 -17 -17 -18 -18 -19 -19 -19 -20 -20 -20 -20 -21 -21 -21 -21 -20 -20 -19 -19 -19 -19 -19 -18 -18 -18 -18 -18 -18 -18 -18 -18 -17 -17 -17 -16 -16 -16 -16 -16 -15 -15 -15 -15 -15 -15 -15 -15 -15 -14 -14 -15 -14 -14 -14 -15
-16 -16 -16 -16 -16 -16 -16 -16 -16 -16 -16 -16 -16 -16 -16 -16 -16 -16 -17 -17 -18 -18 -19 -19 -19 -20 -20 -20 -20 -21 -21 -21 -21 -21 -21 -20 -20 -20 -19 -19 -19 -19 -18 -18 -18 -18 -18 -18 -18 -18 -18 -17 -17 -17 -16 -16 -16 -16 -15 -15 -15 -15 -15 -15 -15 -15 -15 -15 -14 -14 -14 -15 -15 -15
-16 -16 -16 -16 -16 -16 -16 -16 -16 -16 -16 -16 -16 -16 -16 -16 -16 -17 -17 -18 -19 -19 -19 -20 -20 -20 -20 -21 -21 -21 -21 -21 -21 -21 -21 -20 -20 -20 -20 -19 -19 -19 -19 -19 -19 -19 -18 -18 -18 -18 -18 -18 -18 -18 -17 -17 -16 -16 -16 -15 -15 -15 -15 -15 -15 -15 -15 -15 -15 -14 -15 -15 -15 -15
-16 -16 -16 -16 -16 -16 -16 -17 -17 -16 -16 -16 -16 -16 -16 -16 -16 -17 -17 -18 -19 -20 -20 -20 -20 -20 -21 -21 -21 -21 -21 -21 -21 -21 -21 -20 -20 -20 -19 -19 -19 -19 -19 -19 -19 -19 -19 -18 -18 -18 -18 -18 -18 -18 -18 -17 -17 -16 -16 -16 -15 -15 -15 -15 -15 -15 -15 -15 -15 -14 -15 -15 -15 -15
-16 -16 -16 -17 -17 -17 -17 -17 -17 -16 -16 -16 -16 -16 -16 -17 -17 -17 -18 -18 -19 -20 -20 -20 -20 -21 -21 -21 -21 -21 -21 -21 -21 -21 -21 -20 -20 -20 -19 -19 -20 -20 -20 -20 -19 -19 -19 -19 -19 -18 -18 -18 -18 -18 -18 -18 -17 -17 -16 -16 -16 -15 -15 -15 -15 -15 -15 -15 -15 -15 -15 -15 -15 -15
-16 -17 -17 -17 -17 -17 -17 -17 -17 -16 -16 -16 -17 -17 -17 -17 -18 -18 -18 -19 -20 -20 -20 -20 -21 -21 -21 -21 -21 -21 -21 -21 -21 -21 -21 -21 -21 -20 -20 -20 -20 -20 -20 -20 -20 -20 -20 -20 -19 -19 -19 -18 -18 -18 -18 -18 -18 -17 -17 -16 -16 -16 -15 -15 -15 -15 -15 -15 -15 -15 -15 -15 -15 -15
-17 -17 -17 -17 -17 -17 -17 -17 -17 -16 -17 -17 -17 -17 -17 -18 -18 -19 -19 -20 -20 -20 -20 -21 -21 -21 -21 -21 -22 -21 -22 -22 -22 -21 -21 -21 -21 -21 -21 -20 -20 -20 -20 -19 -19 -19 -19 -19 -19 -19 -19 -19 -19 -18 -18 -18 -18 -18 -17 -17 -16 -16 -16 -15 -15 -15 -15 -15 -15 -15 -15 -15 -15 -15
-17 -17 -17 -17 -17 -17 -17 -17 -17 -17 -17 -17 -17 -18 -18 -18 -19 -20 -20 -20 -21 -21 -21 -21 -21 -21 -21 -22 -22 -22 -22 -22 -21 -21 -21 -21 -21 -21 -21 -21 -21 -20 -20 -20 -19 -19 -19 -19 -19 -19 -19 -19 -19 -19 -18 -18 -18 -18 -18 -17 -17 -16 -16 -16 -15 -15 -15 -15 -15 -15 -15 -15 -15 -15
-17 -17 -17 -17 -17 -17 -17 -17 -17 -17 -17 -18 -18 -18 -18 -19 -20 -20 -21 -21 -21 -21 -21 -21 -21 -21 -21 -21 -22 -22 -22 -22 -21 -21 -21 -21 -21 -21 -20 -20 -21 -20 -20 -20 -20 -20 -19 -19 -19 -19 -19 -19 -19 -19 -19 -19 -18 -18 -18 -17 -17 -17 -16 -16 -16 -15 -15 -15 -15 -15 -15 -15 -15 -15
-17 -17 -17 -17 -17 -17 -17 -17 -17 -17 -18 -18 -18 -18 -19 -19 -20 -20 -21 -21 -21 -21 -21 -21 -21 -21 -21 -21 -21 -21 -22 -22 -22 -21 -21 -21 -21 -21 -20 -20 -20 -20 -20 -20 -19 -20 -19 -19 -19 -19 -19 -18 -18 -19 -19 -19 -19 -18 -18 -18 -17 -17 -16 -16 -16 -16 -15 -15 -15 -16 -15 -15 -15 -15
-17 -17 -17 -17 -17 -17 -17 -17 -17 -18 -18 -18 -18 -19 -19 -20 -20 -21 -21 -21 -21 -21 -21 -21 -21 -21 -21 -21 -21 -21 -21 -22 -22 -21 -21 -21 -20 -20 -20 -20 -20 -20 -20 -20 -19 -19 -19 -19 -19 -19 -19 -18 -18 -18 -18 -19 -19 -19 -18 -18 -17 -17 -17 -16 -16 -16 -15 -15 -16 -16 -16 -15 -15 -15
-17 -17 -17 -17 -17 -17 -17 -17 -17 -18 -18 -18 -19 -19 -20 -20 -20 -21 -21 -21 -21 -21 -21 -21 -21 -21 -21 -21 -21 -21 -21 -21 -21 -21 -21 -21 -20 -20 -20 -20 -20 -20 -20 -20 -19 -19 -19 -19 -19 -19 -19 -19 -18 -18 -18 -18 -19 -19 -19 -18 -17 -17 -17 -17 -16 -16 -16 -15 -16 -16 -16 -15 -15 -15
-17 -17 -17 -17 -17 -17 -17 -17 -18 -18 -18 -18 -18 -19 -19 -20 -20 -21 -21 -21 -21 -21 -21 -21 -21 -21 -21 -21 -21 -21 -21 -21 -21 -21 -21 -21 -20 -20 -20 -20 -20 -20 -20 -20 -20 -19 -19 -19 -19 -19 -19 -19 -19 -18 -18 -18 -18 -18 -19 -18 -18 -17 -17 -17 -16 -16 -16 -16 -16 -16 -16 -15 -15 -15
-18 -18 -17 -17 -17 -17 -17 -18 -18 -18 -18 -18 -19 -19 -19 -20 -20 -21 -21 -21 -21 -21 -21 -21 -21 -21 -21 -21 -21 -21 -21 -21 -21 -21 -21 -21 -21 -20 -20 -19 -19 -19 -19 -20 -20 -20 -19 -19 -19 -19 -19 -19 -19 -19 -19 -18 -18 -18 -18 -19 -18 -18 -17 -17 -17 -16 -16 -16 -16 -16 -16 -15 -15 -15
-18 -18 -18 -18 -18 -18 -18 -18 -18 -18 -19 -19 -19 -19 -20 -20 -20 -21 -21 -21 -21 -21 -21 -21 -21 -21 -21 -21 -21 -21 -21 -21 -21 -22 -21 -21 -21 -21 -20 -19 -19 -19 -19 -19 -19 -20 -20 -19 -19 -19 -19 -19 -19 -19 -19 -19 -18 -18 -18 -19 -19 -18 -18 -17 -17 -16 -16 -16 -16 -16 -16 -15 -15 -16
-18 -18 -18 -18 -18 -18 -18 -18 -19 -19 -19 -19 -19 -20 -20 -20 -21 -21 -21 -21 -21 -21 -21 -21 -21 -21 -21 -21 -21 -21 -21 -21 -22 -22 -22 -22 -21 -21 -21 -20 -20 -19 -19 -20 -20 -20 -20 -20 -20 -19 -19 -20 -20 -20 -20 -19 -19 -19 -18 -18 -19 -19 -18 -18 -17 -17 -16 -16 -16 -16 -16 -16 -15 -16
-18 -18 -18 -18 -18 -18 -18 -19 -19 -19 -19 -19 -20 -20 -20 -21 -21 -21 -21 -21 -21 -21 -22 -22 -22 -22 -22 -22 -22 -22 -22 -22 -22 -22 -22 -22 -22 -21 -21 -21 -21 -20 -20 -20 -20 -20 -20 -20 -20 -20 -20 -20 -20 -20 -20 -20 -20 -19 -19 -18 -18 -19 -19 -18 -18 -17 -17 -16 -16 -16 -16 -15 -15 -16
-18 -18 -18 -18 -18 -18 -19 -19 -19 -19 -20 -20 -20 -20 -21 -21 -21 -21 -21 -21 -21 -22 -22 -22 -22 -22 -22 -22 -22 -22 -22 -22 -22 -22 -22 -22 -22 -22 -21 -21 -21 -21 -21 -20 -20 -20 -20 -20 -20 -20 -20 -20 -21 -21 -21 -21 -21 -20 -19 -19 -18 -19 -19 -19 -18 -17 -17 -17 -16 -16 -16 -15 -15 -16
-18 -18 -18 -18 -18 -19 -19 -19 -19 -20 -20 -20 -20 -21 -21 -21 -21 -21 -21 -21 -21 -22 -22 -22 -22 -22 -22 -22 -22 -22 -22 -22 -22 -22 -22 -22 -22 -21 -21 -21 -21 -21 -20 -20 -20 -20 -20 -20 -20 -20 -21 -21 -21 -22 -22 -22 -22 -22 -21 -19 -19 -19 -19 -19 -18 -18 -17 -17 -17 -16 -16 -15 -15 -15
-18 -18 -18 -18 -19 -19 -19 -19 -20 -20 -20 -20 -21 -21 -21 -21 -22 -22 -22 -22 -22 -22 -22 -22 -22 -22 -22 -22 -22 -22 -22 -22 -22 -21 -21 -21 -21 -21 -21 -21 -21 -21 -21 -20 -20 -20 -20 -20 -20 -21 -22 -22 -22 -22 -23 -23 -22 -22 -22 -20 -19 -19 -19 -19 -19 -18 -18 -17 -17 -17 -16 -16 -15 -15
-18 -18 -18 -19 -19 -19 -19 -20 -20 -20 -21 -21 -21 -21 -21 -21 -22 -22 -22 -22 -22 -22 -22 -22 -22 -22 -22 -22 -22 -22 -22 -22 -22 -22 -21 -21 -21 -21 -21 -21 -21 -21 -21 -21 -20 -20 -21 -21 -21 -22 -22 -23 -23 -23 -23 -23 -23 -22 -22 -21 -20 -19 -19 -19 -19 -19 -18 -17 -17 -17 -17 -16 -15 -15
-18 -19 -19 -19 -19 -19 -19 -20 -20 -20 -21 -21 -21 -21 -21 -21 -22 -22 -22 -22 -22 -22 -22 -22 -22 -22 -22 -22 -22 -22 -22 -22 -22 -22 -22 -21 -21 -21 -21 -21 -21 -21 -21 -21 -21 -21 -21 -22 -22 -22 -22 -23 -23 -23 -23 -24 -23 -22 -22 -21 -20 -19 -19 -19 -19 -19 -18 -18 -17 -17 -17 -16 -16 -15
-19 -19 -19 -19 -19 -19 -20 -20 -20 -21 -21 -21 -21 -21 -21 -22 -22 -22 -22 -22 -22 -22 -22 -22 -22 -22 -22 -22 -22 -22 -22 -22 -22 -22 -22 -22 -21 -21 -21 -22 -22 -21 -21 -21 -21 -21 -22 -22 -22 -23 -23 -23 -23 -23 -24 -24 -23 -22 -22 -21 -20 -19 -19 -19 -19 -19 -19 -18 -17 -17 -17 -17 -16 -15
-19 -19 -19 -19 -19 -19 -20 -20 -20 -21 -21 -21 -21 -21 -21 -21 -21 -21 -22 -22 -22 -22 -22 -22 -22 -22 -22 -22 -22 -22 -22 -22 -22 -22 -22 -22 -22 -22 -22 -22 -22 -22 -22 -21 -21 -22 -22 -22 -22 -23 -23 -23 -23 -23 -24 -24 -24 -23 -22 -21 -20 -19 -19 -20 -20 -20 -19 -19 -18 -17 -17 -17 -16 -16
-19 -19 -19 -19 -19 -20 -20 -20 -20 -21 -21 -21 -21 -21 -21 -21 -21 -21 -22 -22 -22 -22 -22 -22 -22 -22 -22 -22 -22 -22 -22 -22 -22 -22 -22 -22 -22 -22 -22 -22 -22 -22 -22 -22 -22 -22 -22 -23 -22 -22 -23 -23 -23 -23 -24 -24 -24 -23 -22 -22 -20 -19 -20 -20 -20 -20 -19 -19 -18 -17 -17 -17 -17 -16
-19 -19 -19 -19 -20 -20 -20 -20 -20 -21 -21 -21 -21 -21 -21 -21 -21 -21 -22 -22 -22 -22 -22 -22 -22 -22 -22 -22 -22 -21 -21 -21 -22 -22 -22 -22 -23 -23 -22 -22 -22 -22 -22 -22 -22 -22 -22 -23 -22 -22 -22 -23 -23 -23 -23 -24 -24 -23 -23 -22 -21 -20 -20 -20 -20 -20 -20 -19 -19 -18 -17 -17 -17 -16
-19 -19 -19 -20 -20 -20 -20 -21 -21 -21 -21 -21 -21 -21 -21 -21 -21 -21 -22 -22 -22 -22 -22 -22 -22 -22 -22 -22 -21 -21 -21 -21 -22 -22 -22 -22 -23 -23 -23 -23 -23 -22 -22 -22 -22 -22 -22 -23 -22 -22 -22 -22 -23 -23 -23 -23 -24 -23 -23 -22 -21 -20 -20 -20 -21 -20 -20 -20 -19 -18 -17 -17 -17 -17
-19 -20 -20 -20 -20 -20 -20 -21 -21 -21 -21 -21 -21 -21 -21 -21 -21 -21 -21 -22 -22 -22 -22 -22 -22 -22 -22 -22 -22 -21 -21 -22 -22 -22 -22 -22 -22 -23 -23 -23 -23 -23 -22 -22 -22 -22 -22 -23 -22 -22 -22 -22 -22 -22 -23 -23 -23 -23 -23 -22 -22 -21 -21 -21 -21 -21 -20 -20 -19 -19 -18 -17 -17 -17
-19 -20 -20 -20 -20 -20 -20 -21 -21 -21 -21 -21 -21 -21 -21 -21 -21 -21 -21 -22 -22 -22 -22 -22 -22 -22 -22 -22 -22 -22 -22 -22 -22 -22 -22 -22 -22 -22 -22 -23 -23 -23 -23 -22 -22 -22 -22 -22 -22 -22 -22 -22 -22 -22 -22 -22 -23 -23 -23 -22 -22 -21 -21 -21 -21 -21 -20 -20 -20 -19 -18 -18 -17 -17
-20 -20 -20 -20 -20 -20 -21 -21 -21 -21 -21 -22 -22 -21 -21 -21 -21 -21 -21 -22 -22 -22 -22 -22 -22 -22 -22 -22 -22 -22 -22 -22 -22 -22 -22 -22 -22 -22 -22 -22 -23 -23 -23 -23 -22 -22 -22 -22 -22 -22 -22 -22 -22 -22 -22 -22 -22 -23 -23 -22 -22 -22 -21 -21 -21 -21 -20 -20 -20 -19 -19 -18 -18 -17
-20 -20 -20 -20 -20 -20 -21 -21 -21 -21 -21 -22 -22 -22 -21 -21 -22 -22 -22 -22 -22 -22 -22 -22 -22 -22 -22 -22 -22 -22 -22 -22 -21 -22 -21 -22 -22 -22 -22 -22 -22 -23 -23 -23 -23 -23 -22 -22 -22 -22 -22 -22 -22 -22 -22 -22 -22 -22 -22 -22 -22 -22 -21 -21 -21 -21 -20 -20 -20 -19 -19 -19 -18 -18
-20 -20 -20 -20 -20 -20 -21 -21 -21 -21 -21 -22 -22 -22 -22 -22 -22 -22 -22 -22 -22 -22 -22 -22 -22 -22 -22 -22 -22 -22 -22 -22 -22 -22 -22 -21 -22 -22 -22 -22 -22 -22 -22 -23 -23 -23 -23 -23 -22 -22 -22 -22 -22 -22 -22 -22 -22 -22 -22 -22 -22 -21 -21 -21 -21 -21 -20 -20 -20 -19 -19 -19 -18 -18
-20 -20 -20 -20 -20 -21 -21 -21 -22 -21 -21 -22 -22 -22 -22 -22 -22 -22 -22 -22 -22 -22 -22 -22 -22 -22 -22 -22 -22 -22 -22 -22 -22 -22 -22 -22 -22 -22 -22 -22 -22 -22 -22 -22 -22 -23 -23 -23 -23 -23 -22 -22 -22 -22 -22 -22 -22 -22 -22 -22 -22 -21 -21 -21 -21 -20 -20 -20 -20 -20 -19 -19 -19 -18
-20 -20 -20 -20 -21 -21 -21 -21 -22 -22 -22 -22 -22 -22 -22 -22 -22 -22 -22 -22 -22 -22 -22 -22 -22 -22 -22 -22 -22 -22 -22 -22 -22 -22 -22 -22 -22 -22 -22 -22 -22 -22 -22 -22 -22 -22 -22 -22 -23 -23 -22 -22 -22 -22 -22 -22 -22 -22 -22 -22 -21 -21 -21 -21 -20 -20 -20 -20 -20 -20 -20 -19 -19 -18
-20 -20 -20 -21 -21 -21 -21 -22 -22 -22 -22 -22 -22 -22 -22 -22 -22 -22 -22 -22 -22 -22 -22 -22 -22 -22 -22 -22 -22 -22 -22 -22 -22 -22 -22 -22 -22 -22 -22 -22 -22 -22 -22 -22 -22 -22 -22 -22 -22 -22 -22 -22 -22 -22 -22 -21 -22 -22 -22 -22 -21 -21 -21 -21 -21 -20 -20 -20 -20 -20 -20 -19 -19 -18
-20 -20 -21 -21 -21 -22 -22 -22 -22 -22 -22 -22 -22 -22 -22 -22 -22 -22 -22 -22 -22 -22 -22 -22 -22 -22 -22 -22 -22 -22 -22 -22 -22 -22 -22 -22 -22 -22 -22 -22 -22 -22 -22 -22 -22 -22 -22 -22 -22 -22 -22 -22 -22 -22 -22 -22 -22 -22 -22 -21 -21 -21 -21 -21 -21 -21 -20 -20 -20 -20 -20 -19 -19 -19
-20 -21 -21 -21 -21 -22 -22 -22 -22 -22 -22 -22 -22 -22 -22 -22 -22 -22 -22 -22 -22 -22 -22 -22 -22 -22 -22 -22 -22 -22 -22 -22 -22 -22 -22 -22 -22 -22 -22 -22 -22 -22 -22 -22 -22 -22 -22 -22 -22 -22 -22 -21 -21 -21 -22 -22 -21 -21 -21 -21 -21 -21 -21 -21 -21 -21 -21 -21 -21 -21 -20 -20 -19 -19
-20 -21 -21 -21 -22 -22 -22 -22 -23 -23 -23 -23 -22 -22 -22 -22 -23 -22 -22 -22 -22 -22 -22 -23 -23 -22 -22 -22 -22 -22 -22 -22 -22 -22 -22 -22 -22 -22 -22 -22 -22 -22 -22 -22 -22 -22 -22 -22 -22 -22 -22 -22 -21 -21 -21 -21 -21 -21 -21 -21 -21 -21 -21 -21 -21 -21 -21 -21 -21 -21 -21 -20 -20 -19
-20 -21 -21 -21 -22 -22 -22 -23 -23 -23 -23 -23 -23 -22 -23 -23 -23 -23 -22 -22 -22 -22 -23 -23 -23 -23 -22 -22 -22 -22 -22 -22 -22 -22 -22 -22 -22 -22 -22 -22 -22 -22 -22 -22 -22 -22 -22 -22 -22 -22 -22 -22 -22 -22 -22 -22 -22 -22 -21 -21 -21 -21 -21 -20 -20 -20 -20 -20 -21 -21 -21 -20 -20 -19
-20 -21 -21 -21 -22 -22 -23 -23 -23 -23 -23 -23 -23 -23 -23 -23 -23 -23 -23 -23 -23 -23 -23 -23 -23 -23 -23 -22 -22 -22 -22 -22 -22 -22 -22 -22 -22 -22 -22 -22 -22 -22 -22 -22 -22 -22 -22 -22 -22 -22 -22 -22 -22 -22 -22 -22 -22 -22 -22 -21 -21 -21 -21 -20 -20 -20 -20 -20 -20 -21 -20 -20 -20 -20
-20 -21 -21 -22 -22 -23 -23 -23 -23 -23 -23 -23 -23 -23 -23 -23 -23 -23 -23 -23 -23 -23 -23 -23 -23 -23 -23 -23 -22 -22 -22 -22 -22 -22 -22 -22 -22 -22 -22 -22 -22 -22 -22 -22 -22 -22 -22 -22 -22 -22 -22 -22 -22 -22 -22 -22 -22 -22 -22 -22 -21 -21 -21 -21 -21 -20 -20 -20 -20 -20 -20 -20 -20 -20
-20 -21 -21 -22 -22 -23 -23 -23 -23 -23 -23 -23 -23 -23 -23 -23 -23 -23 -23 -23 -23 -23 -23 -23 -23 -23 -23 -23 -23 -22 -22 -22 -22 -22 -22 -22 -22 -22 -22 -22 -22 -22 -22 -22 -22 -22 -22 -22 -22 -22 -22 -22 -22 -22 -22 -22 -22 -22 -22 -22 -21 -21 -21 -21 -21 -21 -21 -21 -20 -20 -20 -20 -20 -19
-20 -21 -21 -22 -22 -23 -23 -23 -23 -23 -23 -23 -23 -23 -23 -23 -23 -23 -23 -23 -23 -23 -23 -23 -23 -23 -23 -23 -23 -23 -22 -22 -22 -22 -22 -22 -22 -22 -22 -22 -22 -22 -22 -22 -22 -22 -22 -22 -22 -22 -22 -22 -22 -22 -22 -22 -22 -22 -22 -22 -22 -22 -21 -21 -21 -21 -21 -21 -21 -20 -20 -20 -20 -19
-20 -20 -21 -22 -22 -23 -23 -23 -23 -23 -23 -23 -23 -23 -23 -23 -23 -23 -23 -23 -23 -23 -23 -23 -23 -23 -23 -23 -23 -23 -23 -22 -22 -22 -22 -23 -23 -23 -22 -22 -22 -22 -22 -22 -22 -22 -22 -22 -22 -22 -22 -22 -22 -22 -22 -22 -22 -22 -22 -22 -22 -22 -22 -22 -22 -21 -21 -21 -21 -21 -20 -20 -20 -20
Height
5777 5775 5774 5772 5770 5768 5767 5765 5762 5760 5757 5754 5750 5747 5743 5739 5734 5728 5721 5718 5714 5709 5705 5701 5696 5690 5687 5683 5678 5673 5668 5663 5659 5655 5651 5648 5644 5641 5638 5635 5633 5631 5629 5628 5628 5629 5629 5630 5631 5632 5634 5635 5636 5640 5643 5646 5649 5651 5654 5656 5659 5662 5664 5666 5668 5670 5672 5674 5678 5679 5681 5684 5687 5690
5774 5773 5771 5769 5767 5766 5763 5761 5759 5756 5753 5750 5747 5743 5739 5734 5730 5725 5718 5712 5709 5705 5699 5695 5692 5687 5683 5679 5674 5668 5662 5657 5652 5647 5643 5640 5636 5633 5630 5626 5624 5622 5621 5620 5620 5620 5621 5621 5622 5623 5625 5626 5627 5629 5633 5637 5640 5643 5645 5648 5651 5655 5657 5659 5661 5663 5666 5669 5672 5675 5676 5679 5682 5685
5772 5770 5768 5766 5764 5762 5760 5758 5755 5752 5749 5746 5743 5739 5735 5730 5725 5721 5715 5708 5703 5700 5696 5690 5686 5682 5678 5674 5670 5663 5657 5652 5646 5641 5636 5632 5628 5625 5622 5619 5616 5614 5613 5612 5611 5611 5611 5612 5613 5614 5615 5617 5619 5620 5622 5626 5631 5634 5636 5640 5643 5647 5650 5653 5654 5656 5659 5663 5666 5669 5672 5675 5678 5680
5769 5767 5765 5763 5761 5759 5757 5754 5752 5749 5745 5742 5739 5735 5731 5727 5722 5717 5712 5706 5699 5695 5691 5687 5683 5678 5674 5669 5665 5660 5653 5647 5641 5634 5629 5625 5621 5618 5615 5612 5609 5607 5605 5603 5602 5601 5601 5601 5603 5604 5606 5607 5609 5611 5612 5615 5620 5625 5628 5631 5634 5638 5642 5646 5648 5650 5653 5656 5660 5663 5666 5670 5672 5674
5766 5764 5762 5760 5758 5756 5754 5751 5748 5745 5742 5738 5734 5730 5726 5722 5718 5713 5709 5704 5698 5692 5687 5684 5680 5675 5671 5665 5660 5655 5649 5642 5636 5629 5623 5618 5614 5610 5608 5606 5603 5600 5597 5595 5593 5592 5592 5592 5593 5595 5596 5598 5600 5602 5603 5605 5609 5614 5619 5622 5625 5630 5634 5638 5641 5643 5646 5649 5653 5657 5660 5663 5666 5668
5763 5761 5759 5757 5755 5753 5750 5748 5744 5741 5737 5734 5730 5726 5722 5718 5714 5710 5705 5701 5696 5691 5685 5681 5678 5673 5667 5662 5656 5650 5644 5638 5632 5625 5618 5612 5607 5603 5601 5599 5597 5593 5590 5588 5587 5586 5585 5585 5585 5586 5588 5590 5591 5593 5595 5597 5599 5604 5609 5613 5616 5620 5625 5629 5633 5636 5639 5642 5646 5650 5653 5657 5660 5663
5760 5758 5756 5754 5752 5750 5747 5744 5741 5737 5733 5730 5726 5721 5718 5713 5709 5705 5701 5697 5693 5689 5684 5679 5675 5670 5664 5658 5653 5647 5640 5633 5627 5620 5613 5607 5602 5598 5595 5593 5591 5588 5586 5584 5583 5582 5581 5580 5579 5580 5581 5582 5584 5585 5587 5589 5591 5594 5599 5604 5607 5611 5616 5620 5625 5629 5632 5635 5639 5643 5646 5650 5654 5657
5758 5756 5754 5751 5749 5747 5744 5741 5737 5734 5730 5726 5722 5718 5714 5710 5705 5701 5697 5694 5690 5686 5682 5676 5671 5667 5661 5655 5650 5644 5638 5630 5623 5616 5609 5603 5599 5595 5592 5590 5588 5585 5582 5581 5579 5577 5576 5575 5575 5574 5575 5575 5577 5578 5580 5582 5584 5586 5590 5595 5598 5602 5606 5611 5615 5620 5624 5627 5631 5636 5639 5643 5648 5651
5755 5753 5751 5748 5746 5743 5740 5737 5734 5730 5726 5722 5718 5714 5710 5706 5702 5698 5694 5691 5687 5683 5679 5674 5669 5664 5659 5653 5647 5642 5636 5629 5622 5614 5607 5601 5597 5594 5591 5588 5585 5582 5580 5578 5576 5574 5572 5571 5570 5570 5570 5570 5571 5572 5573 5575 5576 5578 5581 5585 5590 5593 5597 5602 5607 5611 5616 5620 5624 5628 5632 5636 5641 5645
5752 5750 5748 5745 5743 5740 5737 5734 5731 5727 5723 5719 5715 5711 5707 5703 5700 5696 5692 5689 5685 5681 5676 5672 5667 5662 5657 5652 5645 5639 5633 5626 5619 5613 5607 5600 5595 5592 5590 5587 5583 5579 5577 5575 5573 5571 5568 5567 5567 5566 5566 5566 5566 5566 5567 5567 5569 5570 5572 5576 5581 5585 5588 5593 5598 5602 5607 5612 5616 5621 5625 5629 5634 5638
5749 5747 5745 5743 5740 5737 5734 5731 5727 5724 5720 5717 5712 5708 5704 5701 5698 5694 5690 5686 5683 5679 5674 5669 5664 5659 5655 5650 5644 5637 5630 5623 5616 5610 5605 5600 5595 5590 5587 5585 5582 5578 5574 5572 5570 5568 5565 5563 5563 5562 5561 5561 5561 5561 5562 5562 5562 5563 5565 5568 5572 5576 5580 5584 5589 5594 5598 5603 5608 5613 5618 5623 5627 5632
5746 5744 5742 5740 5737 5734 5731 5728 5724 5721 5718 5714 5709 5705 5702 5699 5696 5692 5689 5684 5680 5676 5672 5667 5662 5657 5653 5647 5642 5635 5629 5622 5615 5608 5602 5597 5593 5588 5584 5581 5579 5576 5572 5569 5568 5566 5563 5560 5559 5558 5557 5556 5556 5556 5556 5557 5557 5557 5558 5561 5564 5568 5572 5576 5580 5585 5590 5595 5600 5605 5611 5615 5620 5625
5743 5741 5739 5737 5734 5731 5728 5725 5722 5719 5715 5711 5707 5704 5700 5697 5693 5690 5686 5682 5678 5674 5669 5665 5660 5655 5650 5645 5639 5633 5626 5619 5613 5606 5600 5595 5590 5586 5582 5578 5576 5573 5570 5566 5563 5562 5560 5557 5554 5553 5552 5551 5550 5550 5550 5550 5551 5551 5552 5553 5556 5561 5564 5567 5572 5577 5581 5587 5592 5597 5603 5608 5613 5618
5740 5738 5736 5733 5731 5728 5725 5722 5719 5716 5712 5709 5705 5702 5699 5695 5692 5688 5684 5680 5676 5671 5667 5662 5658 5653 5647 5642 5636 5630 5624 5617 5611 5605 5599 5593 5587 5583 5579 5576 5573 5571 5567 5564 5560 5557 5556 5553 5550 5548 5547 5545 5544 5543 5543 5544 5545 5545 5546 5546 5548 5552 5556 5560 5563 5568 5573 5578 5584 5589 5595 5600 5606 5611
5737 5735 5733 5730 5728 5725 5722 5719 5716 5712 5709 5706 5702 5699 5696 5693 5689 5686 5682 5677 5673 5669 5664 5660 5655 5650 5645 5640 5634 5628 5622 5616 5610 5603 5597 5591 5585 5580 5575 5572 5569 5567 5564 5561 5557 5554 5552 5550 5546 5543 5541 5539 5537 5536 5535 5536 5537 5538 5538 5539 5540 5543 5548 5552 5555 5559 5564 5570 5575 5581 5587 5593 5598 5603
5735 5732 5730 5727 5725 5722 5719 5716 5713 5710 5706 5703 5700 5696 5693 5689 5686 5683 5679 5675 5671 5667 5662 5657 5653 5648 5643 5637 5632 5626 5620 5614 5609 5603 5596 5590 5584 5578 5573 5568 5565 5563 5560 5557 5554 5550 5548 5545 5541 5537 5535 5533 5531 5528 5527 5526 5527 5528 5530 5531 5532 5534 5538 5543 5547 5551 5556 5561 5567 5573 5579 5585 5591 5596
5732 5729 5727 5724 5722 5719 5716 5713 5710 5707 5703 5700 5697 5693 5690 5686 5682 5679 5676 5672 5668 5664 5660 5655 5651 5646 5641 5635 5630 5624 5618 5613 5608 5602 5596 5590 5585 5579 5573 5567 5563 5560 5557 5554 5550 5546 5543 5540 5536 5531 5528 5525 5522 5520 5518 5515 5515 5516 5519 5522 5524 5526 5529 5533 5538 5543 5547 5553 5558 5564 5571 5577 5583 5589
5729 5726 5724 5721 5719 5716 5713 5710 5707 5704 5700 5697 5694 5691 5687 5684 5680 5676 5673 5669 5665 5662 5658 5653 5649 5644 5639 5633 5628 5622 5617 5611 5606 5601 5596 5590 5584 5579 5573 5567 5562 5557 5553 5550 5548 5543 5539 5535 5530 5525 5521 5516 5512 5510 5508 5504 5502 5503 5506 5510 5514 5518 5520 5524 5529 5534 5539 5544 5550 5556 5563 5569 5576 5582
5726 5723 5721 5718 5716 5713 5710 5707 5704 5701 5698 5694 5691 5688 5684 5681 5678 5674 5671 5667 5664 5660 5656 5651 5647 5642 5637 5632 5626 5621 5615 5610 5605 5600 5595 5590 5583 5577 5572 5566 5560 5554 5550 5546 5544 5540 5535 5530 5524 5518 5513 5507 5502 5499 5496 5493 5490 5490 5492 5497 5503 5508 5512 5515 5520 5525 5530 5536 5542 5548 5555 5562 5568 5575
5723 5720 5718 5715 5713 5710 5707 5705 5702 5698 5695 5692 5689 5685 5681 5678 5675 5672 5668 5665 5661 5657 5654 5649 5645 5640 5635 5630 5625 5620 5614 5609 5604 5599 5594 5589 5582 5576 5570 5564 5557 5552 5547 5543 5539 5535 5530 5525 5519 5511 5503 5497 5491 5487 5483 5481 5480 5479 5479 5483 5489 5496 5502 5506 5511 5517 5522 5528 5534 5540 5547 5554 5561 5568
5720 5718 5715 5713 5710 5707 5705 5702 5699 5696 5693 5689 5686 5683 5679 5675 5672 5669 5665 5662 5658 5655 5651 5647 5643 5638 5633 5629 5624 5619 5614 5609 5603 5598 5593 5587 5581 5574 5568 5562 5556 5550 5545 5540 5535 5531 5525 5519 5514 5505 5494 5486 5481 5478 5474 5471 5469 5468 5467 5470 5476 5484 5491 5497 5502 5508 5514 5520 5526 5533 5540 5547 5553 5560
5717 5715 5713 5710 5708 5705 5702 5699 5697 5694 5691 5687 5684 5681 5677 5674 5670 5667 5664 5660 5656 5652 5649 5645 5641 5637 5632 5628 5623 5618 5614 5608 5603 5597 5591 5585 5580 5573 5566 5560 5554 5549 5543 5538 5532 5527 5521 5514 5508 5501 5491 5481 5474 5471 5468 5463 5458 5456 5456 5458 5464 5472 5481 5488 5494 5500 5506 5512 5519 5525 5533 5539 5546 5554
5714 5712 5710 5708 5705 5703 5700 5697 5695 5692 5689 5686 5682 5679 5675 5672 5669 5666 5663 5659 5656 5652 5648 5644 5640 5636 5632 5627 5623 5618 5614 5609 5603 5597 5590 5584 5578 5572 5565 5559 5553 5547 5542 5536 5530 5524 5518 5510 5502 5496 5490 5482 5473 5465 5459 5454 5448 5445 5446 5448 5454 5463 5473 5481 5487 5493 5499 5505 5511 5518 5526 5533 5540 5548
5711 5709 5707 5705 5703 5700 5697 5695 5693 5690 5687 5684 5681 5678 5674 5671 5667 5664 5661 5657 5654 5650 5647 5643 5639 5635 5631 5627 5622 5618 5614 5608 5603 5597 5590 5584 5577 5571 5565 5559 5552 5545 5539 5534 5528 5522 5515 5508 5500 5491 5484 5477 5470 5462 5453 5446 5440 5437 5438 5441 5447 5456 5467 5475 5481 5487 5492 5498 5504 5511 5519 5527 5534 5542
5708 5706 5704 5702 5700 5698 5695 5693 5690 5688 5685 5682 5679 5676 5673 5670 5666 5663 5659 5655 5652 5648 5645 5641 5638 5634 5630 5626 5622 5618 5613 5608 5603 5597 5590 5584 5577 5571 5565 5559 5552 5546 5539 5532 5526 5520 5513 5506 5499 5491 5481 5473 5466 5460 5451 5443 5437 5434 5434 5436 5443 5452 5462 5469 5476 5481 5487 5492 5498 5505 5513 5522 5529 5537
5705 5703 5701 5699 5697 5695 5693 5690 5688 5686 5683 5680 5677 5674 5671 5668 5665 5661 5658 5654 5650 5646 5643 5639 5636 5633 5629 5626 5622 5617 5613 5608 5602 5596 5590 5584 5577 5571 5564 5558 5551 5546 5539 5532 5525 5519 5513 5505 5498 5491 5482 5474 5466 5460 5453 5445 5438 5434 5433 5435 5441 5450 5458 5466 5472 5478 5483 5488 5493 5500 5508 5516 5524 5531
5702 5700 5698 5696 5694 5692 5690 5688 5685 5683 5680 5678 5675 5672 5669 5666 5663 5659 5656 5652 5648 5645 5641 5638 5635 5631 5628 5625 5621 5617 5612 5607 5601 5596 5590 5584 5578 5572 5565 5559 5552 5546 5539 5532 5525 5518 5512 5505 5498 5491 5484 5477 5470 5463 5456 5449 5443 5438 5437 5438 5442 5449 5457 5464 5470 5475 5480 5485 5490 5496 5504 5512 5519 5526
5698 5697 5695 5693 5691 5689 5687 5685 5683 5680 5678 5675 5673 5670 5667 5664 5661 5658 5655 5651 5647 5643 5640 5636 5633 5630 5626 5623 5619 5615 5611 5606 5601 5596 5590 5585 5579 5573 5566 5560 5554 5547 5541 5534 5526 5519 5513 5507 5499 5492 5485 5479 5473 5466 5460 5454 5448 5444 5442 5442 5445 5451 5457 5464 5469 5474 5478 5482 5487 5493 5500 5508 5515 5522
5695 5693 5691 5690 5688 5686 5684 5682 5680 5677 5675 5673 5670 5668 5665 5662 5659 5656 5653 5650 5646 5642 5638 5635 5632 5628 5625 5621 5617 5613 5609 5605 5601 5596 5591 5586 5580 5574 5568 5561 5554 5548 5542 5536 5528 5520 5514 5508 5502 5494 5487 5480 5474 5468 5463 5459 5454 5451 5449 5448 5450 5454 5459 5464 5469 5474 5478 5482 5486 5491 5497 5504 5512 5518
5691 5689 5688 5686 5685 5683 5681 5679 5677 5675 5672 5670 5668 5666 5663 5660 5657 5654 5652 5648 5645 5641 5637 5633 5630 5627 5623 5619 5615 5612 5608 5604 5600 5596 5592 5587 5582 5576 5571 5564 5557 5550 5543 5536 5530 5523 5516 5510 5504 5497 5490 5483 5477 5472 5468 5464 5460 5457 5455 5454 5455 5458 5461 5466 5470 5474 5478 5481 5485 5489 5495 5502 5509 5515
5687 5686 5684 5683 5681 5680 5678 5676 5674 5672 5669 5667 5665 5663 5661 5658 5655 5652 5649 5647 5643 5639 5635 5632 5628 5625 5622 5618 5614 5611 5607 5603 5599 5595 5591 5587 5582 5577 5572 5566 5561 5554 5546 5538 5532 5525 5519 5513 5507 5501 5494 5488 5481 5476 5471 5468 5465 5462 5460 5460 5460 5462 5464 5467 5470 5474 5477 5481 5485 5489 5493 5499 5506 5512
5683 5682 5681 5679 5678 5676 5674 5672 5671 5669 5667 5665 5663 5661 5658 5655 5652 5650 5647 5644 5641 5638 5634 5630 5627 5624 5621 5617 5614 5610 5606 5602 5598 5594 5590 5586 5582 5577 5572 5567 5562 5557 5551 5543 5536 5529 5522 5516 5511 5505 5499 5493 5487 5481 5476 5472 5470 5467 5465 5464 5464 5465 5466 5468 5471 5474 5478 5481 5484 5488 5492 5496 5502 5508
5679 5678 5677 5676 5674 5672 5671 5669 5668 5666 5664 5662 5660 5658 5656 5653 5650 5647 5645 5642 5639 5636 5633 5629 5626 5622 5619 5616 5612 5609 5605 5601 5597 5594 5590 5586 5581 5577 5572 5568 5563 5558 5553 5548 5541 5534 5527 5520 5514 5508 5503 5498 5492 5487 5482 5478 5475 5472 5470 5469 5469 5469 5469 5470 5472 5475 5478 5481 5485 5488 5491 5494 5499 5505
5674 5674 5673 5672 5670 5669 5667 5666 5665 5663 5661 5659 5657 5655 5653 5651 5648 5645 5643 5640 5638 5635 5631 5628 5624 5621 5618 5615 5611 5607 5604 5600 5596 5593 5589 5585 5581 5577 5572 5568 5563 5559 5554 5549 5544 5538 5532 5526 5519 5512 5507 5502 5497 5492 5488 5484 5480 5477 5476 5474 5473 5473 5473 5473 5474 5476 5479 5482 5485 5487 5490 5493 5497 5502
5670 5669 5669 5668 5667 5665 5664 5663 5662 5660 5658 5656 5654 5652 5650 5648 5646 5643 5641 5638 5636 5633 5630 5626 5623 5619 5616 5613 5609 5606 5602 5599 5595 5591 5588 5584 5580 5576 5572 5568 5564 5559 5555 5550 5546 5541 5536 5531 5525 5519 5512 5507 5502 5498 5494 5490 5486 5483 5481 5480 5478 5476 5476 5476 5477 5478 5480 5482 5485 5487 5489 5492 5496 5500
5665 5665 5664 5663 5663 5662 5661 5660 5658 5657 5655 5653 5652 5650 5648 5646 5643 5641 5638 5636 5634 5631 5628 5625 5621 5618 5614 5611 5608 5604 5601 5597 5594 5590 5587 5583 5580 5576 5572 5568 5564 5560 5556 5551 5547 5542 5537 5533 5530 5525 5518 5512 5507 5502 5499 5495 5492 5488 5486 5484 5482 5480 5478 5478 5478 5479 5480 5482 5484 5486 5489 5491 5495 5499
5660 5660 5660 5659 5659 5658 5657 5656 5655 5654 5652 5650 5649 5647 5645 5643 5641 5638 5636 5634 5631 5629 5626 5623 5620 5616 5613 5609 5606 5603 5599 5596 5592 5589 5586 5582 5579 5575 5572 5568 5564 5560 5556 5552 5547 5543 5539 5535 5531 5527 5522 5517 5512 5507 5503 5499 5497 5493 5491 5488 5485 5484 5482 5481 5480 5480 5481 5482 5484 5486 5488 5491 5494 5499
5656 5656 5655 5654 5654 5654 5653 5653 5652 5651 5649 5647 5646 5644 5642 5640 5638 5635 5633 5631 5628 5626 5624 5621 5618 5614 5611 5608 5605 5601 5598 5595 5591 5588 5584 5581 5578 5575 5571 5568 5564 5560 5556 5552 5548 5545 5541 5537 5533 5528 5523 5519 5515 5510 5506 5503 5501 5498 5495 5492 5489 5487 5486 5484 5484 5484 5484 5484 5485 5487 5489 5492 5495 5500
5652 5651 5651 5650 5650 5649 5649 5649 5648 5647 5646 5645 5643 5641 5639 5637 5635 5633 5630 5628 5626 5623 5621 5619 5616 5612 5609 5606 5603 5600 5597 5594 5590 5587 5583 5580 5577 5573 5570 5567 5564 5560 5556 5553 5549 5546 5542 5538 5534 5529 5524 5519 5516 5513 5509 5506 5503 5501 5499 5496 5493 5492 5490 5488 5487 5487 5488 5488 5489 5490 5492 5494 5497 5501
5647 5646 5646 5645 5645 5645 5644 5644 5644 5643 5642 5641 5640 5638 5636 5634 5632 5630 5628 5626 5623 5621 5619 5616 5614 5611 5607 5604 5601 5598 5595 5592 5589 5585 5582 5578 5575 5572 5569 5566 5563 5560 5557 5553 5550 5546 5543 5539 5534 5530 5525 5522 5518 5515 5513 5510 5508 5506 5504 5501 5498 5497 5495 5492 5491 5491 5491 5491 5492 5494 5495 5497 5500 5503
5642 5641 5641 5640 5640 5640 5640 5639 5639 5639 5638 5637 5636 5634 5633 5631 5629 5627 5625 5623 5621 5618 5616 5614 5611 5609 5605 5602 5599 5596 5593 5590 5587 5584 5581 5577 5574 5571 5568 5565 5562 5559 5556 5554 5550 5546 5543 5539 5535 5531 5528 5525 5522 5520 5517 5515 5513 5509 5506 5504 5502 5500 5499 5497 5496 5496 5496 5496 5496 5497 5499 5500 5502 5505
5637 5636 5636 5635 5635 5635 5635 5635 5635 5634 5634 5634 5633 5631 5629 5627 5626 5624 5622 5620 5618 5616 5613 5611 5609 5606 5603 5600 5597 5594 5591 5588 5586 5583 5580 5577 5573 5570 5567 5564 5561 5558 5555 5552 5549 5546 5543 5539 5536 5534 5531 5529 5526 5524 5521 5518 5515 5511 5508 5506 5505 5503 5502 5500 5500 5500 5500 5500 5500 5500 5501 5502 5504 5506
5632 5632 5631 5631 5630 5630 5630 5630 5630 5630 5630 5629 5629 5627 5626 5624 5622 5620 5618 5617 5615 5613 5611 5608 5606 5603 5601 5598 5595 5592 5589 5586 5584 5581 5578 5575 5572 5569 5566 5563 5560 5558 5554 5551 5548 5545 5543 5540 5538 5535 5533 5530 5528 5526 5523 5520 5517 5514 5511 5509 5507 5505 5504 5503 5503 5502 5502 5502 5502 5503 5503 5504 5505 5507
5627 5627 5627 5626 5626 5626 5626 5626 5626 5625 5625 5625 5624 5623 5622 5620 5619 5617 5615 5613 5612 5610 5608 5606 5603 5601 5598 5595 5592 5590 5587 5584 5582 5579 5576 5573 5570 5568 5565 5562 5559 5556 5554 5551 5548 5545 5542 5540 5538 5536 5533 5531 5529 5526 5524 5522 5520 5517 5513 5511 5509 5507 5506 5505 5504 5504 5504 5503 5503 5504 5504 5505 5507 5508
5622 5622 5622 5621 5621 5621 5621 5621 5621 5621 5621 5621 5620 5619 5618 5617 5615 5613 5611 5610 5608 5607 5605 5602 5600 5598 5595 5593 5590 5587 5585 5582 5579 5577 5574 5571 5569 5566 5563 5561 5558 5555 5553 5550 5548 5545 5542 5540 5537 5535 5533 5531 5529 5527 5525 5523 5521 5518 5516 5514 5512 5510 5508 5506 5505 5505 5504 5504 5504 5504 5505 5506 5507 5509
Wind_Speed
28 28 28 29 29 29 29 30 32 33 35 36 39 41 42 43 44 46 49 50 51 51 52 52 50 48 48 48 48 49 50 51 52 52 52 52 51 51 50 50 49 48 48 47 46 45 45 44 44 45 48 51 53 51 49 47 47 48 48 47 47 47 47 48 48 49 48 47 43 38 36 37 33 33
29 29 29 29 29 30 30 31 33 35 36 38 40 42 43 44 46 48 51 52 53 52 51 50 49 47 47 48 49 51 52 53 54 54 54 54 54 53 52 51 50 49 48 47 46 44 43 43 42 42 44 46 50 52 51 49 48 49 49 49 49 48 49 49 50 50 49 47 43 39 36 36 33 31
29 29 30 30 30 30 31 33 34 36 37 39 41 42 43 46 48 50 51 52 53 52 49 48 48 48 49 49 50 51 52 53 53 54 54 54 54 53 52 52 51 49 48 46 45 44 43 42 41 41 41 42 45 48 51 51 49 49 50 51 50 50 50 50 51 51 50 47 44 43 40 36 36 36
30 30 30 31 31 31 32 34 35 36 38 40 42 43 44 47 49 51 52 50 50 49 48 47 48 49 50 50 50 50 51 52 53 53 53 53 53 52 51 49 48 47 45 44 43 42 41 40 40 39 40 41 41 43 47 50 50 49 50 52 51 51 51 51 52 51 50 49 46 46 44 40 42 42
30 30 31 31 32 32 33 35 36 37 39 41 43 44 45 47 49 51 51 49 46 46 46 46 47 48 49 49 49 50 50 51 52 53 54 54 54 52 49 47 44 41 38 37 36 37 37 38 38 38 38 39 40 41 43 47 49 49 50 52 53 52 52 52 53 53 51 50 48 47 47 44 44 43
30 31 31 32 32 33 34 35 37 38 40 42 43 44 46 48 50 50 49 47 44 44 45 46 47 47 48 48 49 50 51 51 52 53 54 54 52 51 48 42 36 32 29 27 27 27 29 30 32 34 36 37 39 40 42 44 47 48 49 52 54 54 54 53 54 54 52 51 50 49 49 46 44 43
31 31 31 32 32 33 34 36 37 39 41 42 43 44 46 48 49 48 47 45 43 43 44 45 46 46 47 48 49 50 50 51 52 53 52 51 48 46 43 37 31 28 27 25 25 24 24 24 25 27 30 33 36 39 41 42 45 47 48 51 54 55 54 55 55 55 54 53 51 50 50 49 46 44
31 31 32 32 32 33 35 36 38 39 40 41 42 44 45 47 47 45 43 42 42 42 43 45 46 46 47 48 49 49 49 50 50 49 47 44 42 41 39 35 33 33 32 31 30 29 27 24 23 22 23 27 31 35 38 41 43 47 48 49 53 56 56 56 56 56 56 55 53 51 51 51 48 45
31 31 32 32 32 33 35 36 38 39 40 41 42 43 44 45 44 42 40 40 41 41 42 44 45 45 46 47 47 48 48 47 46 44 40 37 36 35 34 33 34 35 36 35 34 34 32 27 23 22 21 22 26 30 35 39 42 45 48 49 51 55 57 57 57 57 57 56 55 53 52 52 49 47
31 32 32 32 32 34 35 37 38 38 39 40 40 42 43 43 41 39 38 39 39 41 42 43 44 45 46 46 47 47 47 46 44 40 35 33 33 33 31 30 31 33 34 34 33 33 33 30 27 26 24 22 23 26 30 36 40 44 47 49 50 54 57 58 58 58 58 58 56 55 54 53 51 50
31 31 31 31 32 33 35 37 37 38 38 38 40 41 42 40 38 36 36 37 39 40 41 42 44 45 45 46 46 47 48 47 45 40 34 31 32 33 32 29 28 30 31 31 30 29 31 31 30 30 29 27 25 25 26 31 37 42 46 49 50 52 56 58 59 59 59 59 58 57 55 54 54 52
31 31 31 31 32 33 35 36 37 37 37 38 39 40 39 37 36 35 35 37 38 39 41 42 43 44 45 45 46 47 48 47 46 42 38 35 33 34 34 31 28 28 29 29 28 27 28 30 31 31 31 31 29 28 27 28 32 38 44 49 51 52 55 58 60 60 61 61 60 59 57 56 56 54
31 30 30 31 32 33 35 36 36 36 36 37 38 38 37 36 35 34 35 36 37 39 40 41 43 44 45 46 46 47 49 49 49 46 43 40 37 36 36 35 31 28 28 28 28 28 28 30 32 33 34 34 33 31 30 29 30 34 40 47 51 52 55 58 60 61 62 62 61 60 59 58 58 56
30 30 30 31 32 34 35 35 36 36 36 37 38 38 37 36 35 34 35 36 37 38 40 41 43 44 46 47 48 48 50 52 52 50 46 42 40 38 37 36 33 29 27 25 27 29 29 28 30 33 35 36 37 36 34 32 31 32 36 42 49 52 55 58 61 62 63 64 63 62 61 61 60 58
30 29 30 31 32 34 35 35 35 36 36 37 38 38 37 36 35 34 34 35 36 37 39 41 42 44 46 47 49 50 51 53 54 54 51 46 43 42 40 38 35 32 29 27 27 29 28 28 32 35 35 35 37 38 39 38 36 34 35 39 45 51 55 57 61 64 64 65 65 63 63 63 61 60
29 29 30 31 33 34 35 35 35 35 35 36 37 36 36 36 35 35 34 35 36 37 38 40 42 44 46 48 50 51 52 54 55 56 55 52 48 45 43 40 37 35 33 32 31 31 31 32 36 40 39 36 36 37 39 41 42 41 38 38 42 48 54 57 60 64 66 66 66 65 64 64 63 61
29 29 30 31 33 34 35 35 35 35 35 35 36 35 35 35 34 34 34 35 36 36 38 39 42 44 46 48 50 52 54 55 56 56 56 56 53 48 45 42 40 38 37 35 34 34 36 38 41 43 43 40 39 39 40 41 44 46 45 42 41 45 51 56 60 63 66 68 68 67 66 66 65 63
29 29 30 32 33 34 35 35 35 34 34 34 34 34 33 33 33 33 34 35 36 36 37 39 41 43 46 48 50 53 55 56 57 57 57 57 56 53 49 44 40 38 37 34 33 34 37 40 43 44 42 41 44 45 43 40 41 46 49 48 44 44 48 54 59 62 65 68 69 68 67 67 66 65
29 30 31 32 33 34 34 35 34 33 33 33 33 33 32 32 32 33 33 34 35 36 37 38 40 42 45 47 50 53 55 56 57 58 57 58 58 56 54 47 40 37 36 34 33 34 37 39 40 42 43 46 49 49 45 40 37 40 47 52 50 46 47 52 58 62 64 67 69 69 69 69 68 67
29 30 31 32 33 33 33 34 33 32 32 32 32 32 32 32 32 33 34 34 35 36 37 38 40 42 44 47 50 52 54 55 57 57 57 58 58 58 56 50 41 37 37 36 35 36 38 41 44 47 49 50 48 45 41 37 34 34 40 50 54 51 48 50 55 61 65 66 69 70 69 70 69 68
29 30 31 32 32 32 32 33 33 31 31 31 31 32 31 31 32 33 34 35 35 36 38 39 40 42 44 47 49 51 53 55 56 57 57 58 58 59 59 54 46 40 39 39 39 39 42 45 48 50 49 46 40 36 35 35 34 33 35 45 55 55 51 50 52 58 64 66 68 69 70 70 70 70
30 30 31 32 32 32 32 32 32 30 30 30 31 31 31 31 31 32 33 34 35 36 38 39 40 42 44 46 48 50 52 54 55 56 57 58 59 59 60 59 53 45 41 42 41 41 43 46 47 47 44 40 37 35 33 34 35 33 32 39 52 57 54 51 51 55 61 66 68 69 70 71 71 70
31 31 31 32 32 31 31 31 31 30 29 29 30 30 30 31 32 32 33 33 34 35 36 37 39 41 43 45 47 49 50 52 53 55 56 58 59 59 60 62 59 51 46 44 42 41 44 45 44 45 43 38 36 39 38 34 30 29 28 33 47 56 55 51 50 53 58 64 68 69 69 70 71 71
31 31 31 32 32 31 30 31 30 29 28 28 29 30 30 31 32 33 33 33 34 35 36 37 38 39 41 43 45 47 49 51 52 53 54 56 58 59 60 61 62 59 53 47 42 42 46 47 44 46 48 43 36 38 41 36 26 20 19 27 41 52 54 51 49 51 55 61 67 69 68 69 71 71
32 31 31 32 31 30 29 30 30 29 28 28 29 30 30 31 32 33 34 34 35 35 36 37 38 38 40 42 44 46 48 49 51 52 53 54 56 58 59 60 62 62 59 51 43 43 48 50 47 47 48 45 39 37 38 36 27 15 10 21 35 47 51 49 48 49 52 57 64 68 68 68 70 71
32 31 31 31 31 30 29 29 30 30 29 29 30 31 31 32 33 34 34 35 35 35 36 37 38 38 39 40 42 44 46 48 50 51 52 53 54 56 58 60 62 62 61 55 47 45 48 50 50 49 48 45 41 38 36 35 30 18 6 15 29 42 48 47 45 47 49 53 60 66 67 67 68 70
32 31 31 31 30 29 28 28 30 30 29 29 30 31 31 32 33 34 35 35 35 36 37 37 38 39 39 39 40 42 44 46 49 50 51 51 52 53 55 58 60 61 62 59 53 48 49 50 49 49 49 48 45 41 38 36 32 24 9 10 24 35 43 44 42 43 46 50 55 62 66 66 67 69
33 31 30 30 29 28 27 28 29 30 29 29 30 30 31 31 32 33 34 35 35 36 36 37 38 38 39 39 39 40 43 45 47 48 49 50 50 51 52 54 57 59 61 61 58 53 50 50 48 47 49 49 45 42 40 35 31 28 16 2 18 28 36 41 40 40 42 46 50 57 63 65 66 68
33 32 30 30 28 28 27 27 29 30 29 29 30 30 30 31 32 33 34 34 35 35 36 37 38 38 39 39 40 40 42 44 45 46 47 48 49 49 50 51 54 57 59 60 60 57 52 49 47 47 49 49 44 40 37 32 27 26 21 7 10 21 28 35 38 37 39 42 46 52 59 63 64 66
33 32 31 29 28 27 27 26 28 29 29 29 30 30 30 30 31 32 33 34 34 35 36 37 38 38 39 40 40 40 41 42 43 44 45 46 47 47 48 49 50 53 57 59 60 59 54 49 47 48 50 49 43 38 35 30 25 22 21 14 2 14 21 27 33 35 36 39 42 46 53 60 62 64
34 33 31 29 28 28 27 26 27 28 29 29 30 31 30 30 30 32 33 34 34 35 36 37 38 38 39 39 40 40 40 40 42 43 44 45 46 46 46 46 47 48 52 56 59 59 56 50 46 47 49 47 41 37 34 30 25 21 18 14 7 6 14 19 25 31 33 36 39 41 46 54 60 62
34 33 32 30 28 28 27 26 26 27 28 28 29 29 29 29 30 31 33 33 34 35 35 36 37 38 39 39 39 39 40 40 40 42 43 44 45 45 45 45 45 45 47 50 54 57 57 53 47 45 47 46 41 37 33 29 25 21 17 15 11 5 7 11 17 24 30 33 35 37 41 48 56 60
34 34 33 30 29 29 27 26 26 27 27 28 28 28 28 28 29 30 31 32 33 34 34 35 36 37 38 38 39 39 39 39 40 41 42 43 44 44 44 44 44 44 45 46 49 52 55 55 50 45 44 43 40 37 33 29 25 21 17 15 13 10 7 7 11 17 24 28 31 32 36 42 50 57
34 35 34 31 30 29 28 26 26 27 27 27 28 28 27 27 27 28 30 31 32 33 33 34 35 36 37 38 38 38 38 39 39 40 41 42 43 43 43 43 43 43 44 44 46 48 50 52 51 47 42 40 38 35 32 31 29 24 21 19 16 12 9 7 8 12 17 22 25 27 31 37 45 53
33 34 34 32 31 30 28 27 26 27 27 27 27 27 27 26 26 27 28 30 31 32 33 34 34 35 36 37 37 38 38 38 39 39 40 41 42 42 42 42 42 43 43 43 44 46 47 48 49 47 42 38 36 33 30 29 28 24 22 22 20 14 10 7 5 8 11 15 19 22 26 32 40 49
33 33 34 33 32 30 29 28 27 27 27 27 26 26 25 25 25 26 27 29 30 31 32 33 34 35 36 36 37 37 38 38 38 39 40 40 41 41 41 41 41 41 42 43 43 44 45 45 46 45 42 38 34 31 29 28 26 21 19 21 23 20 15 10 5 6 10 13 15 19 22 27 35 44
33 33 34 34 33 31 30 29 28 27 28 27 26 26 25 25 25 26 27 28 30 31 32 33 34 35 35 36 36 36 37 37 38 38 39 39 40 39 39 39 39 40 41 42 43 43 43 43 44 44 44 40 35 31 29 27 24 21 19 20 23 23 20 15 10 6 7 9 12 15 19 24 30 38
33 34 35 35 34 32 31 30 28 28 28 27 27 26 25 25 25 26 27 28 30 31 31 32 34 34 35 36 36 36 36 37 37 38 39 39 39 38 37 37 38 39 40 41 41 41 42 42 42 43 44 43 39 35 31 26 22 20 19 17 18 20 19 17 14 11 10 9 10 12 15 20 26 33
33 35 36 36 35 33 32 30 29 28 28 28 27 26 26 26 26 26 27 28 29 30 31 32 33 34 35 36 36 36 36 36 37 38 38 38 38 38 37 37 37 37 39 40 40 40 40 40 40 41 43 44 43 41 37 32 28 24 21 16 14 15 18 23 22 17 16 15 12 10 13 17 23 29
33 35 37 37 36 34 33 31 30 29 29 28 27 27 26 26 26 27 27 28 29 30 31 32 33 33 34 35 36 36 36 36 36 37 38 38 38 37 36 37 37 37 38 38 39 39 39 39 39 40 40 41 42 42 40 37 33 28 23 18 13 13 15 21 22 19 19 21 17 13 12 16 20 25
33 35 37 38 38 36 34 32 31 30 30 29 27 27 26 26 27 27 27 28 29 30 31 32 33 33 33 34 35 36 36 36 36 36 37 37 37 36 36 36 37 38 38 38 38 38 38 38 38 37 37 37 37 37 37 36 33 28 25 22 18 16 13 14 15 14 14 16 17 14 12 14 18 22
34 35 37 39 39 38 35 33 32 32 31 29 28 27 27 27 28 28 28 28 29 30 31 32 33 33 33 34 35 35 36 36 36 36 36 36 36 36 35 35 36 37 38 38 38 38 37 36 35 35 33 33 32 32 32 34 33 31 29 26 22 19 15 12 10 9 8 10 11 12 11 13 17 21
35 37 38 40 40 39 37 35 33 33 32 30 28 28 27 27 28 29 29 29 30 31 32 33 33 33 34 34 34 35 36 36 36 36 36 36 35 35 35 35 36 37 38 38 38 37 36 35 33 33 32 31 30 29 30 30 31 31 31 29 25 21 17 12 8 5 5 7 8 8 9 12 15 18
37 38 39 40 41 40 39 36 35 34 33 31 30 29 28 28 29 30 30 30 31 32 32 33 33 34 34 34 34 35 35 36 36 35 35 36 35 35 34 35 36 37 37 37 36 35 34 33 32 32 32 31 30 29 28 27 27 28 29 29 28 24 19 13 9 5 3 3 5 6 7 9 12 15
38 38 39 40 41 41 40 38 36 35 34 32 31 30 30 29 29 30 31 31 32 33 33 34 34 34 34 34 34 34 35 35 35 35 35 35 35 34 34 34 35 36 36 35 34 32 32 32 32 32 32 32 32 31 29 27 25 25 25 25 26 25 22 18 14 9 3 2 4 5 7 8 10 13
Wind_Direction
317 315 313 312 311 310 310 311 313 315 318 320 321 322 322 323 325 326 327 327 327 327 326 325 324 323 323 323 322 321 319 317 315 313 310 308 305 302 299 296 293 290 287 285 282 280 277 273 269 264 260 257 255 251 247 245 244 243 242 238 236 236 236 237 237 236 238 239 239 245 237 222 221 226
317 314 312 311 310 310 311 312 314 317 319 320 321 322 324 326 328 329 328 328 328 328 328 327 326 325 326 326 325 322 320 318 316 314 311 309 306 304 301 298 295 292 289 286 283 280 277 274 270 266 261 258 256 253 248 244 242 241 241 238 235 234 234 235 237 236 237 237 236 239 235 227 232 240
315 313 312 311 311 311 311 313 317 319 319 321 322 324 326 329 330 330 330 330 330 329 329 329 328 329 329 328 326 323 321 319 317 315 312 310 308 306 304 302 300 297 294 291 288 284 279 274 270 266 262 257 255 254 250 245 240 239 239 238 236 233 232 233 236 237 236 236 234 233 234 233 236 242
314 313 312 312 312 311 313 316 319 320 321 322 323 326 328 330 330 331 332 333 332 331 331 332 331 331 330 328 326 325 323 321 320 318 315 313 311 309 308 307 305 303 300 297 293 288 283 277 271 265 261 257 253 252 251 247 241 237 236 237 235 233 231 230 233 236 236 235 233 232 232 230 229 236
314 313 313 312 312 313 316 319 320 321 322 324 326 329 330 331 332 333 334 333 333 334 334 334 333 332 330 329 329 328 327 326 324 322 319 317 316 314 313 313 311 309 306 301 296 291 286 280 274 267 262 257 252 249 248 248 243 237 234 234 234 233 231 229 230 233 234 234 232 231 232 231 229 232
314 314 313 313 313 315 318 320 321 323 324 326 329 331 332 333 334 334 334 335 335 336 335 334 334 333 332 333 334 334 332 330 327 324 322 320 319 318 318 319 320 317 312 309 305 300 294 287 279 271 264 258 254 248 245 245 244 239 232 231 232 232 230 229 229 230 232 233 232 231 231 232 230 231
315 314 313 314 315 318 320 322 323 324 326 328 331 334 335 336 336 336 336 337 337 337 336 335 335 336 337 338 339 338 335 333 330 327 324 323 322 322 323 327 327 322 319 317 315 311 306 299 290 279 269 261 255 251 246 242 242 240 234 229 230 230 230 228 228 228 230 231 230 229 230 231 230 230
315 314 314 315 317 320 322 323 325 326 328 331 334 336 338 338 339 338 338 338 338 338 337 337 338 340 342 342 342 341 339 336 333 329 326 324 323 323 326 328 326 323 323 322 320 317 312 306 298 288 277 266 257 253 249 244 241 240 236 230 228 228 228 227 227 227 228 229 228 228 229 230 230 229
315 314 315 317 319 322 323 325 326 328 331 334 336 339 340 340 340 340 340 339 339 339 340 340 342 344 346 346 345 344 343 339 336 332 329 326 324 324 325 326 324 321 321 321 320 318 315 310 304 295 285 273 261 254 249 245 241 239 237 231 227 226 227 226 226 225 226 227 227 226 227 228 228 228
315 315 316 319 321 323 324 326 327 330 333 336 338 341 342 342 341 340 340 339 339 341 342 343 344 346 348 348 348 348 347 345 341 336 333 331 329 327 325 325 326 324 320 318 318 316 313 310 307 302 294 284 272 260 252 247 242 239 237 233 227 225 225 225 224 224 224 225 226 225 224 226 225 226
315 316 318 320 322 324 325 327 330 333 335 337 340 343 343 341 340 340 340 339 340 342 344 345 347 348 349 350 351 352 353 352 348 342 338 335 333 330 326 324 327 328 323 320 319 317 313 309 306 303 298 292 283 272 260 251 246 241 237 233 228 224 224 224 223 223 223 223 224 224 223 223 223 224
316 317 319 321 323 324 326 328 332 334 336 339 343 344 342 340 340 340 339 340 342 343 345 347 348 349 351 352 353 355 356 356 354 349 344 340 337 334 331 328 328 329 326 322 320 318 314 311 307 304 300 296 290 281 270 258 250 245 239 235 230 224 222 223 222 222 222 222 222 222 222 222 222 222
316 318 320 321 323 324 326 330 333 335 337 342 344 343 341 340 339 339 340 341 343 344 346 348 349 350 352 353 355 356 358 359 359 356 351 344 339 336 335 333 331 331 328 324 321 318 315 314 311 306 301 296 290 284 276 266 255 248 242 238 233 226 222 221 221 221 221 221 221 221 220 221 221 221
317 318 320 321 323 325 328 331 333 335 339 342 343 342 340 340 339 339 340 341 344 345 348 349 350 351 353 355 357 358 360 1 1 360 356 350 343 338 336 335 334 332 328 321 317 317 318 319 319 314 307 299 290 282 275 268 260 251 245 240 235 229 223 221 220 219 220 220 220 219 219 219 220 221
317 318 319 321 324 326 329 332 334 337 340 343 342 341 340 340 340 340 340 342 344 347 349 350 351 352 353 356 358 360 1 2 2 1 359 356 350 343 338 336 334 331 326 318 312 312 314 315 316 316 314 307 297 287 276 267 260 253 247 241 237 231 225 221 220 218 218 219 219 218 218 219 219 220
317 318 320 322 324 326 330 333 335 337 341 343 342 340 340 340 340 340 340 342 344 347 349 350 351 353 354 356 359 0 1 1 2 2 1 360 358 351 343 338 334 330 326 321 316 312 312 313 312 313 313 311 306 299 286 271 260 251 245 241 237 233 226 221 220 218 217 217 218 217 216 217 218 218
317 318 320 322 324 327 331 333 335 338 342 343 342 341 340 340 339 340 341 342 345 347 349 350 351 353 354 356 358 360 0 0 1 1 1 0 0 358 353 345 338 333 330 327 324 319 316 315 312 311 310 307 306 306 298 282 264 252 243 238 235 233 229 223 219 219 217 216 217 216 215 215 217 217
317 319 320 322 324 328 332 333 334 338 341 342 341 340 340 339 339 340 341 343 345 347 348 349 351 352 354 355 358 359 359 359 359 360 1 0 0 1 0 355 346 340 336 332 329 325 320 317 313 311 309 305 304 307 304 292 274 255 243 235 231 230 229 225 219 218 217 216 216 216 214 214 215 215
317 319 320 321 324 328 331 332 334 338 340 341 341 340 339 339 339 339 340 342 344 346 346 347 349 351 353 355 356 357 357 357 357 358 359 360 360 0 1 0 353 345 341 338 335 329 325 324 322 319 314 308 305 306 303 295 282 263 245 234 227 225 226 225 221 217 217 216 215 215 214 213 214 214
316 318 318 320 324 328 330 331 333 337 339 341 341 340 339 338 338 338 339 340 342 344 345 346 347 349 352 353 354 355 355 355 355 356 357 359 0 0 1 2 357 350 345 344 341 337 334 334 332 326 319 314 310 307 302 294 283 271 251 235 225 220 220 223 222 218 216 216 215 214 214 212 212 213
314 316 316 318 322 327 329 330 332 335 338 340 341 340 340 339 338 337 337 339 340 342 343 345 346 348 350 351 352 353 353 354 354 354 356 359 0 0 1 2 1 356 352 348 346 344 342 338 336 334 329 323 318 314 308 299 288 276 258 237 224 217 215 218 220 218 216 215 215 214 213 212 212 212
312 313 314 316 320 325 327 329 331 334 337 339 340 341 341 340 339 337 336 337 338 339 341 343 345 346 348 349 350 351 352 352 352 353 355 358 360 0 1 2 2 0 357 354 350 347 345 340 339 342 341 334 328 325 319 310 295 280 262 239 224 215 211 213 216 218 216 214 214 214 213 212 211 212
310 311 312 314 318 323 326 328 330 332 336 339 340 341 342 341 340 338 337 336 336 337 338 340 343 345 346 347 349 349 350 351 352 353 354 356 358 0 1 1 1 1 360 357 353 349 348 344 342 345 346 341 335 332 332 326 307 284 263 239 222 213 209 209 212 215 216 214 213 213 212 211 211 211
308 308 309 311 315 320 324 326 328 331 334 338 340 341 342 342 341 340 339 338 338 338 338 340 342 343 345 346 347 348 349 350 352 353 354 355 357 359 0 1 2 1 360 359 356 352 352 351 348 346 346 346 345 341 339 337 326 297 263 235 219 210 206 206 209 212 215 214 213 212 212 211 210 210
305 305 306 308 313 318 321 324 326 329 333 336 339 340 341 341 341 341 341 341 341 340 340 340 341 342 344 345 346 346 348 349 351 353 354 355 356 358 359 1 2 2 1 359 358 356 356 357 357 355 352 352 353 351 347 346 344 327 267 225 213 207 204 204 206 210 213 214 213 212 211 210 210 210
303 301 302 305 310 315 318 321 324 326 330 334 336 338 339 340 340 340 341 342 342 343 342 342 342 342 343 344 344 345 347 348 351 353 355 355 356 356 358 360 1 2 2 1 360 359 359 2 5 6 5 4 2 359 357 359 0 354 298 214 205 203 202 203 204 207 211 214 213 211 210 209 209 209
300 298 299 302 307 312 315 319 321 324 327 330 333 334 335 337 338 339 339 340 342 343 343 343 342 342 342 342 343 344 346 348 351 353 355 356 356 356 357 359 360 1 2 2 2 1 2 7 9 9 10 12 11 9 7 8 11 10 354 207 198 199 200 201 203 206 209 213 214 212 209 208 208 209
296 294 296 299 304 309 313 315 318 321 323 326 329 331 332 334 336 337 337 338 340 342 343 343 342 342 342 342 343 344 346 348 351 353 354 355 357 357 357 358 359 360 2 3 3 3 5 8 11 10 9 9 9 10 9 10 14 18 15 204 192 194 199 200 202 205 208 212 215 213 209 207 207 208
294 291 292 296 301 306 309 311 315 318 320 323 325 327 329 332 335 336 336 337 338 341 342 343 343 342 342 342 343 345 346 348 350 352 354 355 356 357 358 358 359 359 0 3 5 6 7 8 10 12 10 7 8 10 10 11 17 24 24 29 185 191 197 200 203 205 208 212 214 214 211 207 206 207
292 288 289 293 298 302 304 307 311 314 317 320 322 325 328 331 333 335 335 335 337 339 342 343 343 343 343 343 343 344 346 347 349 351 353 354 356 357 358 360 360 359 360 2 5 7 9 9 10 12 11 9 11 16 16 17 23 31 32 31 118 188 195 201 204 206 209 212 214 215 212 208 206 207
289 286 286 289 295 298 300 303 307 311 314 317 320 323 326 329 332 335 335 335 336 338 341 342 343 343 343 343 344 343 344 346 348 349 351 353 355 357 359 0 2 2 1 1 3 6 10 11 11 12 12 11 15 20 21 22 26 35 41 43 53 171 191 200 205 207 208 212 214 216 214 210 207 207
289 285 283 286 291 294 295 298 303 307 311 314 317 320 324 328 332 334 335 335 335 337 340 341 342 342 342 343 343 343 344 345 347 348 350 352 354 356 358 360 2 3 4 4 3 5 9 11 12 13 13 11 15 21 24 26 28 35 48 58 63 94 169 191 202 206 208 210 213 216 216 212 208 206
289 284 281 283 288 290 291 294 299 303 307 310 314 318 323 327 330 333 334 334 334 336 338 340 341 341 341 341 342 343 343 344 346 347 349 352 354 355 356 358 1 3 5 6 5 6 9 11 12 14 14 13 14 22 30 34 34 36 46 61 70 80 111 159 185 197 204 208 213 216 217 215 210 207
288 283 280 281 284 286 288 291 295 299 303 307 311 316 321 325 329 331 332 332 333 335 337 339 339 340 340 340 341 342 343 344 346 347 349 351 353 354 355 357 0 2 4 6 7 8 10 12 13 15 16 15 16 23 31 34 35 41 51 56 59 67 84 117 159 183 195 204 211 217 219 217 213 208
285 281 278 279 281 283 285 288 291 295 300 304 308 313 318 322 326 329 330 330 331 333 336 338 339 339 340 340 340 341 342 343 345 347 349 350 352 354 355 356 359 1 3 5 7 8 10 12 15 16 17 16 19 24 29 32 38 47 51 47 45 50 61 80 134 180 195 203 212 219 220 219 214 209
281 278 277 277 278 280 282 285 288 292 296 300 304 309 315 320 324 327 328 328 329 331 334 336 338 339 339 340 340 341 342 342 344 346 348 349 351 353 354 355 357 360 2 3 5 7 8 10 13 16 19 19 20 23 28 34 42 46 40 38 45 53 53 54 82 168 196 206 211 217 219 217 213 209
278 276 275 275 276 278 279 281 285 289 292 297 301 306 311 317 321 324 327 327 328 330 332 335 337 338 339 339 339 340 341 342 343 345 347 348 350 352 354 355 356 358 0 2 3 5 6 7 9 13 19 22 23 26 27 29 33 35 31 33 44 52 54 53 61 94 151 178 190 201 208 210 208 207
278 275 273 273 274 276 277 279 282 286 290 295 299 303 309 314 319 322 325 326 327 328 331 334 335 337 338 338 339 339 340 342 343 344 345 347 348 350 352 354 355 357 358 0 1 2 3 5 6 9 14 18 22 26 28 27 23 22 25 31 33 39 56 72 76 78 95 123 147 167 183 195 200 201
280 276 273 272 273 274 275 277 279 283 288 292 296 301 307 312 316 320 322 324 325 327 329 332 334 336 337 337 338 338 339 341 343 343 344 346 347 348 350 352 354 355 356 357 359 360 0 2 5 8 11 14 17 20 23 25 22 15 14 19 17 22 56 86 96 96 98 104 114 136 159 177 189 195
280 277 274 272 271 272 272 274 276 280 284 288 292 298 304 309 313 317 320 322 324 325 327 330 332 334 335 336 337 337 338 340 342 344 344 345 345 347 348 350 351 353 354 354 355 357 358 0 4 7 10 12 14 15 16 19 21 17 12 12 10 13 52 87 100 103 104 107 110 120 145 166 178 188
276 274 272 271 270 269 270 272 274 276 280 284 289 295 301 306 310 314 317 320 323 324 326 328 330 332 334 334 335 336 337 339 341 343 344 345 344 345 346 347 348 350 351 352 353 355 357 360 3 6 8 9 11 13 12 13 17 19 17 17 18 18 37 77 98 103 108 113 113 115 134 160 174 183
274 271 269 269 268 268 268 270 272 275 278 282 287 292 298 303 307 310 314 318 321 323 325 327 329 331 332 333 333 334 336 338 340 341 343 344 344 343 343 345 346 347 348 350 352 354 356 359 1 3 5 7 8 9 9 10 12 16 17 19 22 25 31 52 81 100 116 126 123 121 136 161 176 184
276 272 270 269 268 268 268 270 271 274 277 281 285 289 294 300 304 307 312 316 319 321 323 325 328 330 331 332 332 333 334 336 338 340 342 343 343 342 341 342 343 345 346 348 350 352 354 357 359 0 2 4 4 5 7 8 9 12 13 13 16 23 30 41 58 84 116 135 139 139 147 161 174 185
278 274 272 270 268 268 268 269 270 272 276 279 282 286 291 296 301 305 309 313 316 319 321 324 326 329 330 331 331 332 333 335 336 338 340 342 341 341 340 340 341 343 345 346 349 350 352 354 356 358 360 1 1 2 3 4 6 10 12 10 9 12 21 36 51 61 96 144 158 162 163 169 178 188
281 277 274 271 268 268 268 269 268 270 274 277 280 283 287 292 297 301 306 310 313 315 318 321 324 327 329 330 330 331 331 333 335 337 339 340 340 339 339 339 339 340 342 344 346 348 349 351 352 353 355 356 357 357 358 358 1 5 8 7 6 7 11 20 30 39 61 169 194 197 191 188 191 195